Wind_Speed
5 1 3 3 2 4 7 9 10 12 14 11 6 8 7 2 6 8 13 15 16 21 21 16 17 18 17 17 16 16 16 16 15 15 14 15 15 12 10 11 11 12 13 15 17 19 21 23 25 23 22 22 21 20 22 20 17 18 19 19 20 20 21 21 20 20 21 19 15 15 17 18 18 17 17 16 14 12 10 10 10 11 11 11 12 12 13
9 6 5 3 1 4 5 4 6 10 12 13 10 7 7 6 4 8 15 19 19 21 21 19 19 19 18 18 18 17 17 17 15 14 14 15 16 16 14 15 15 16 16 16 18 18 18 22 26 23 22 25 24 22 21 21 19 19 20 19 19 19 20 20 22 22 21 18 17 18 21 21 19 17 17 16 15 12 11 11 10 10 11 11 11 11 11
8 9 9 6 3 6 7 6 7 9 10 11 11 9 8 6 2 13 20 22 23 23 22 22 21 19 18 19 19 19 18 16 15 15 15 15 17 19 18 17 17 17 18 18 19 19 19 22 25 22 21 24 24 22 21 20 20 21 21 20 19 17 17 18 20 22 21 20 19 20 21 19 16 16 17 17 15 14 13 12 11 10 10 10 10 9 9
4 5 8 10 8 9 10 9 7 6 7 8 8 7 8 6 7 17 23 24 24 25 24 24 23 21 19 20 21 19 18 16 15 15 14 14 15 15 15 15 15 15 17 19 20 20 20 22 24 23 22 23 23 22 22 21 22 22 20 20 19 17 18 19 20 21 20 19 19 19 19 17 16 17 18 18 17 15 15 13 12 12 11 11 11 10 10
4 5 7 11 13 10 7 5 5 5 6 6 5 6 7 7 9 16 24 25 23 24 25 25 25 24 22 23 24 23 22 21 19 16 14 13 14 12 11 11 11 13 17 19 20 21 21 21 22 23 23 23 23 24 24 23 24 23 21 20 18 16 18 20 20 20 19 19 19 18 17 17 16 15 15 15 14 13 13 14 13 13 13 12 12 11 11
6 6 5 11 11 6 3 2 2 5 8 8 8 10 11 11 11 14 18 19 18 21 24 23 24 26 27 29 30 27 25 23 20 18 16 13 11 10 10 10 12 15 18 19 19 21 21 22 23 23 22 22 22 24 24 23 24 24 23 21 18 17 19 19 18 17 17 17 17 17 16 15 15 14 13 13 12 12 13 14 14 14 14 13 13 13 12
7 4 4 5 2 3 6 5 2 8 12 9 9 11 13 14 13 12 14 16 17 20 23 23 24 27 30 31 29 27 24 20 18 16 13 11 9 8 7 8 10 13 16 19 21 22 21 19 19 20 21 21 21 22 23 22 22 22 21 20 20 20 19 18 17 17 16 16 15 14 14 14 14 14 14 14 14 14 14 15 15 15 15 15 14 14 13
7 6 5 3 2 5 8 6 6 13 17 14 11 12 13 14 13 12 14 17 19 20 22 23 25 29 31 31 29 27 26 23 20 16 12 11 11 10 7 7 8 8 10 15 19 19 17 15 16 18 19 20 20 21 22 22 21 20 20 21 21 20 20 19 19 18 17 17 16 15 15 15 15 15 15 15 16 16 16 16 16 15 15 15 15 15 15
6 8 9 7 6 5 5 7 11 15 18 17 14 13 13 14 13 12 12 14 16 16 13 14 18 23 25 25 24 24 23 21 19 16 14 13 12 11 9 9 10 9 10 12 14 13 12 14 16 17 17 17 17 17 17 18 18 18 19 18 17 17 18 19 19 20 20 20 20 20 21 21 21 20 20 20 20 20 19 19 18 17 17 17 18 19 19
7 9 9 6 3 2 3 7 11 11 12 13 13 13 13 14 14 14 13 12 12 13 11 11 14 16 15 15 16 15 14 14 13 12 13 13 11 10 10 10 11 12 13 15 16 17 17 17 17 17 16 16 15 14 14 14 14 15 14 13 13 14 15 17 18 19 20 21 22 22 22 23 23 23 23 23 23 23 23 22 21 21 21 21 21 22 22
8 7 6 3 2 3 5 6 8 9 8 9 11 10 10 13 14 14 14 11 10 12 14 16 15 14 14 14 15 14 12 12 12 12 12 12 11 11 12 13 15 16 18 20 21 22 22 20 19 19 18 18 18 17 17 16 16 16 16 15 15 15 16 17 18 19 20 21 21 21 21 22 22 22 23 24 24 24 25 25 25 25 25 25 25 25 25
6 5 5 4 3 4 6 6 7 7 8 10 12 7 7 12 14 13 13 12 11 13 17 19 17 14 13 12 12 11 10 10 12 13 14 14 14 15 15 16 15 16 18 20 22 22 22 21 21 21 20 20 20 20 20 21 20 20 21 21 21 21 20 20 20 20 21 22 23 23 23 23 24 24 25 25 26 27 27 27 28 28 28 29 29 29 30
6 6 6 5 4 4 6 5 6 7 8 11 11 9 9 13 13 12 13 12 13 16 18 19 18 15 12 10 9 8 8 9 12 15 16 16 16 15 15 14 14 15 17 18 19 20 20 21 21 20 20 20 20 20 21 22 22 22 23 23 24 24 24 24 23 24 25 25 26 27 28 28 29 29 29 30 31 31 31 31 32 32 33 34 35 35 35
7 7 7 6 4 4 4 4 4 7 10 10 11 12 13 13 13 13 14 13 16 19 20 18 17 15 12 10 8 7 7 9 12 15 17 16 16 15 14 13 14 14 15 16 16 17 18 18 19 19 19 20 20 20 21 22 22 22 23 24 24 25 26 27 27 28 29 29 29 30 31 31 32 32 32 33 34 35 35 35 37 38 39 40 41 41 42
6 6 6 4 2 2 4 4 6 9 10 10 12 14 16 15 13 13 13 13 16 19 18 15 14 13 11 9 8 8 7 7 8 10 12 14 15 15 14 13 13 13 13 13 14 14 15 16 17 17 18 19 19 20 20 20 21 21 22 23 24 25 26 27 28 28 29 29 30 30 31 32 32 33 33 34 35 37 38 39 40 41 43 44 45 46 46
3 3 3 3 2 1 2 3 5 7 8 9 10 13 15 15 13 12 13 14 16 16 15 13 12 12 12 11 10 9 8 7 5 6 8 10 11 12 13 13 13 13 13 13 13 14 15 15 16 16 17 18 18 19 19 19 20 21 22 23 25 26 27 27 28 29 30 30 31 32 33 34 35 36 36 37 38 40 41 42 43 43 44 45 46 47 47
4 3 3 4 3 2 1 0 2 4 6 6 7 9 10 12 13 12 12 13 15 15 14 13 13 13 12 11 10 10 10 10 9 9 9 8 9 11 13 14 15 14 13 13 15 16 16 17 17 17 18 19 19 20 20 21 22 22 24 25 27 28 29 30 31 32 32 33 35 36 36 37 38 39 40 40 41 42 43 44 45 46 46 47 47 48 48
6 5 5 3 2 3 2 0 2 4 5 6 7 7 10 13 15 15 15 16 15 14 13 11 10 10 9 9 9 11 12 12 12 11 11 10 11 13 14 15 15 15 15 15 16 17 17 17 17 18 18 19 20 21 21 22 24 25 27 28 29 30 31 32 33 34 35 36 37 37 38 39 40 41 42 42 43 44 45 46 47 48 48 49 49 49 50
3 3 5 2 0 2 2 2 4 6 6 7 8 8 10 13 15 16 16 15 13 11 9 7 6 7 7 8 9 12 13 14 13 12 12 11 12 14 16 16 16 16 15 15 15 16 16 17 17 17 18 19 20 20 21 23 25 27 28 29 30 31 32 32 33 34 35 35 35 36 37 38 39 40 40 41 42 43 43 44 45 45 47 48 48 49 49
4 3 5 2 1 3 4 5 6 7 8 8 8 8 8 10 11 12 12 12 10 8 7 7 8 9 10 11 12 14 15 15 13 12 11 11 12 14 16 17 17 16 15 14 15 16 17 17 16 17 18 18 19 20 21 23 25 25 26 27 27 28 29 30 31 31 32 32 33 33 34 35 36 37 37 38 39 40 40 41 41 42 43 44 44 45 45
2 2 2 2 1 3 5 6 7 9 10 10 10 10 9 9 9 9 9 9 8 8 8 9 11 13 13 14 15 16 16 15 14 13 13 14 15 17 19 19 18 17 15 15 16 17 17 16 16 16 17 18 19 20 21 22 23 23 24 24 25 25 26 26 27 28 28 29 29 30 31 31 32 33 34 35 35 35 36 37 38 38 39 39 39 40 39
3 4 4 2 1 2 3 4 4 5 7 10 12 12 11 11 11 11 12 12 12 12 13 13 14 15 15 16 17 17 17 16 15 14 14 15 16 18 19 18 17 16 15 15 16 17 16 16 16 17 17 17 18 20 20 20 21 21 22 23 23 24 24 25 25 25 26 26 27 27 28 28 28 29 30 30 31 32 32 33 34 35 36 36 35 36 36
4 4 3 2 2 2 3 4 5 4 3 5 8 10 11 12 12 13 14 14 15 15 15 15 15 14 15 16 17 17 16 16 16 15 15 15 15 16 17 16 15 15 15 15 16 16 16 16 16 15 15 16 17 18 18 19 20 21 21 22 22 23 24 24 24 24 24 24 25 25 25 26 26 26 26 26 27 29 30 31 31 32 33 34 34 34 34
3 4 4 4 3 4 5 8 9 8 5 5 5 6 8 8 9 11 11 11 12 12 12 12 12 12 14 15 16 17 17 18 18 18 17 17 16 15 15 16 15 15 15 15 16 16 15 14 14 13 13 14 15 16 17 18 19 20 21 21 22 23 23 23 23 23 23 23 23 23 23 24 24 24 24 24 24 25 27 29 29 29 29 30 31 32 32
2 3 5 5 6 7 8 8 9 9 8 9 8 8 8 8 8 9 9 10 12 13 13 12 11 12 13 15 16 17 18 19 19 19 18 18 17 16 15 15 15 15 15 16 16 15 13 13 12 12 12 13 14 15 17 17 18 20 21 22 23 23 23 23 23 22 22 21 21 21 21 22 22 23 24 24 23 23 24 26 28 29 30 30 30 31 33
1 2 3 2 4 7 8 6 4 5 5 7 11 12 11 10 11 12 13 14 15 15 15 14 13 12 12 13 14 16 18 19 20 20 19 18 17 16 15 15 14 15 15 15 14 12 12 12 11 11 12 13 14 15 17 18 19 20 20 22 22 22 22 22 21 20 19 19 19 19 20 20 21 22 23 24 25 25 25 25 26 28 30 33 34 34 34
1 1 1 2 4 8 8 6 6 7 8 8 11 12 12 14 15 16 16 16 16 16 16 14 13 12 12 12 13 16 18 19 19 19 18 17 16 15 15 14 14 14 14 13 11 11 11 11 11 11 11 13 14 15 16 17 18 19 19 20 20 20 20 20 18 18 17 17 17 18 18 19 20 21 22 23 25 26 27 28 27 27 27 30 35 37 37
2 2 1 2 5 8 9 9 9 10 10 11 13 14 15 16 16 16 15 14 15 16 16 15 14 14 13 12 12 13 15 16 16 16 15 14 14 14 14 14 14 13 13 12 11 11 11 11 10 10 11 12 13 14 15 15 17 17 17 17 17 17 17 17 16 16 15 15 16 16 17 18 19 19 20 21 22 23 25 26 27 26 23 23 27 32 33
5 5 5 6 6 7 8 9 8 8 9 10 12 14 14 13 13 12 11 12 14 16 17 17 15 12 9 8 10 11 11 12 13 14 14 14 14 14 13 13 12 12 12 12 12 12 11 10 10 10 10 10 11 12 13 15 16 16 15 15 15 15 15 14 14 14 14 14 15 15 15 14 15 16 16 17 18 20 21 22 23 22 20 18 19 21 24
7 8 9 10 10 9 9 9 7 7 9 10 11 11 11 11 12 13 13 14 15 16 18 19 16 11 8 9 11 11 11 11 12 13 13 14 14 13 12 12 11 11 12 13 13 12 10 9 10 9 8 8 9 11 14 15 14 14 14 14 14 13 13 13 13 13 13 13 13 12 12 11 12 12 13 14 15 16 18 19 19 18 16 14 13 13 14
6 7 8 8 8 8 9 9 8 7 8 10 11 11 11 11 13 15 16 17 18 19 19 19 16 13 12 13 13 11 11 11 12 11 12 12 12 11 11 11 11 11 13 13 12 11 10 9 9 8 6 6 8 11 13 13 12 12 13 13 12 11 11 11 12 12 13 12 10 10 10 10 10 10 11 13 14 15 16 18 17 15 13 12 11 10 11
6 6 7 7 7 7 8 9 9 8 7 9 10 11 11 12 14 15 16 17 19 20 18 18 18 17 16 15 13 11 11 11 10 9 10 10 10 10 11 11 11 12 13 12 11 10 9 9 9 7 5 5 8 10 12 12 12 12 13 12 11 9 10 10 11 12 13 11 9 8 9 10 9 9 11 12 13 14 16 17 15 13 13 14 13 12 12
9 9 10 10 10 10 10 11 11 10 8 9 9 10 11 13 15 15 16 18 18 16 13 12 14 14 13 12 11 11 11 10 9 8 8 9 10 11 11 11 12 12 12 11 10 9 8 9 9 7 5 5 8 10 10 10 11 12 13 12 11 10 10 11 12 12 12 10 8 7 8 9 10 9 9 10 11 13 15 16 13 12 12 14 15 15 15
13 12 12 11 11 13 14 13 12 12 12 12 13 13 14 15 16 16 17 18 15 12 9 8 9 9 8 9 10 10 10 9 8 7 7 8 9 10 11 11 12 12 11 10 9 8 8 10 10 7 4 5 8 9 8 9 11 12 12 13 12 12 12 12 12 11 12 11 8 6 6 8 9 9 8 8 9 10 12 12 11 10 11 13 13 13 15
17 16 15 13 12 12 11 10 10 11 11 13 15 16 17 17 18 18 19 17 13 10 8 7 8 7 7 8 9 9 8 8 7 7 6 6 6 7 9 10 11 11 10 10 9 9 10 11 10 7 5 6 8 8 7 8 10 11 12 13 13 14 13 12 11 11 12 11 9 7 6 7 7 7 7 8 8 9 8 8 8 10 11 12 12 12 12
16 16 16 14 12 10 8 9 11 13 13 14 15 17 19 20 20 20 19 16 12 9 7 6 7 6 6 7 8 8 7 7 6 6 6 5 4 4 6 8 10 10 10 9 9 10 12 12 10 7 7 8 9 7 6 8 9 10 11 12 14 14 13 11 10 10 11 11 9 8 7 7 7 6 6 7 7 7 7 6 7 8 9 9 9 10 10
13 15 17 18 16 13 10 11 14 15 15 14 15 16 18 20 21 19 18 16 13 10 7 7 7 6 5 5 6 7 7 7 7 7 6 6 5 5 6 7 8 9 9 10 11 12 12 12 10 9 10 10 9 7 6 7 8 9 10 11 13 14 13 12 11 10 11 11 10 9 8 8 8 6 6 6 6 6 6 6 7 7 8 8 8 8 8
12 14 18 20 21 19 16 15 16 16 14 14 15 14 14 15 16 16 16 15 12 10 8 7 6 5 6 6 7 7 7 8 8 9 9 8 8 8 8 8 9 9 10 11 12 12 12 12 12 12 12 12 10 7 5 5 7 8 8 9 11 12 13 13 12 11 10 11 10 9 9 9 9 7 6 6 6 6 6 6 6 7 7 8 7 7 7
12 14 17 19 22 22 20 17 16 15 13 12 12 11 9 9 11 13 14 13 11 10 8 7 5 5 6 7 8 8 8 8 8 9 9 10 10 11 10 10 10 10 11 11 12 12 12 13 13 14 13 12 10 7 4 4 6 7 6 6 8 10 12 13 14 12 10 10 10 9 9 9 10 9 7 6 6 6 6 7 7 7 7 7 7 7 6
10 12 14 16 17 19 19 18 16 14 11 9 8 8 8 8 10 13 14 14 12 11 9 6 5 5 6 7 8 8 8 9 9 8 8 9 10 10 10 10 10 11 11 11 12 12 12 13 14 14 13 11 9 7 4 3 5 5 4 4 6 8 10 12 14 14 12 11 10 9 8 8 9 9 8 7 6 6 6 6 6 6 7 7 7 7 7
12 12 12 12 12 12 14 15 14 12 10 8 6 6 7 8 10 10 11 12 13 12 10 7 6 6 6 7 8 8 8 8 8 8 8 8 8 8 8 10 12 13 12 11 11 11 12 14 14 13 11 10 9 6 4 2 3 4 3 2 3 5 8 11 13 14 14 14 13 11 10 9 8 8 8 7 7 6 6 6 6 6 7 7 6 6 6
14 13 11 10 9 8 9 12 13 13 12 10 9 8 7 8 7 7 6 8 9 10 10 8 7 7 7 7 8 9 8 8 8 7 7 7 7 7 8 11 13 12 10 9 9 10 12 13 12 10 9 9 7 5 2 1 2 3 1 1 2 4 6 8 10 12 13 14 15 15 14 12 11 10 9 8 8 7 6 6 5 6 6 6 6 6 5
14 14 11 9 7 7 7 9 12 15 15 14 12 10 9 9 9 8 7 7 8 9 10 9 9 8 7 7 8 9 8 8 8 8 7 6 6 7 8 10 11 9 7 7 8 10 11 10 8 7 7 6 4 1 1 2 2 2 1 0 1 2 4 6 7 9 11 12 14 15 15 15 15 14 12 11 9 8 7 6 5 5 6 6 6 6 6
14 13 12 10 8 8 7 7 8 11 13 14 14 13 12 11 11 10 10 10 9 9 10 10 9 8 7 7 7 8 8 7 7 7 6 6 5 6 7 8 8 8 8 8 9 8 8 7 6 5 4 3 1 2 3 4 4 4 3 2 2 3 5 5 5 7 8 10 11 12 13 14 15 15 14 14 13 11 9 8 7 6 6 5 4 4 4
13 13 12 11 10 8 7 6 6 6 8 11 13 14 12 11 10 10 10 10 10 10 10 9 9 8 7 7 7 7 7 6 5 4 4 4 5 5 5 6 6 7 8 8 7 6 6 6 6 5 5 5 5 6 6 6 6 6 6 5 6 7 7 6 6 7 7 8 10 11 11 12 13 13 14 15 15 14 13 12 10 9 7 5 4 4 5
12 11 10 10 10 9 8 7 7 7 8 9 10 11 11 11 11 10 10 10 9 9 9 10 9 8 8 7 7 7 7 6 5 3 2 2 3 4 5 5 5 6 6 7 6 6 6 6 6 6 7 7 8 8 8 8 7 8 8 8 8 9 8 8 9 9 9 9 10 10 10 11 11 12 12 13 14 14 15 15 15 14 13 11 10 10 10
11 11 10 9 9 11 11 9 8 9 10 10 10 9 10 11 11 11 10 9 8 9 10 11 10 10 9 9 8 7 7 6 4 4 3 2 1 2 3 4 5 6 6 6 6 6 6 6 6 6 6 7 7 7 7 7 7 7 7 7 8 8 8 8 9 10 10 10 10 10 10 10 10 10 11 11 12 12 13 14 14 15 15 15 14 12 10
11 11 11 10 10 11 11 11 10 9 9 10 10 9 9 10 10 10 10 9 9 9 10 11 11 11 11 10 9 9 9 7 3 1 2 2 1 2 3 3 5 6 5 5 6 6 6 5 5 4 4 4 5 5 5 5 5 5 6 6 6 6 7 7 8 8 9 10 10 10 10 10 10 10 10 10 10 10 11 11 12 13 13 13 13 13 12
11 11 11 11 11 10 10 11 10 8 7 8 9 9 8 9 9 9 9 10 9 10 10 11 11 11 10 10 9 9 10 9 6 4 3 2 2 2 4 4 5 5 6 6 6 5 5 4 4 3 2 2 2 2 3 2 2 2 3 4 4 5 5 6 6 7 8 8 9 10 10 10 10 10 10 9 9 9 9 9 9 10 10 11 11 11 11
13 12 12 11 12 11 11 11 10 9 8 7 7 7 7 7 7 7 8 8 9 9 10 11 11 10 10 10 9 9 10 11 11 9 7 5 4 4 4 4 5 5 5 5 5 4 4 4 3 2 1 1 1 1 1 2 2 2 2 2 2 3 4 4 5 5 6 7 7 8 9 9 9 10 9 9 9 9 9 8 8 8 8 8 9 9 10
13 12 12 12 12 13 12 11 11 9 8 8 7 7 7 7 7 7 8 8 8 9 10 11 11 12 12 12 12 11 11 12 13 13 12 10 9 9 8 7 6 6 6 6 6 6 6 5 5 5 4 4 4 4 4 4 4 4 4 3 3 2 2 3 4 4 5 6 6 7 8 8 9 9 9 9 9 8 8 8 8 8 7 7 7 7 7
13 13 12 12 12 13 13 12 11 10 10 10 10 10 9 8 7 7 8 8 9 9 10 11 11 11 12 12 12 12 11 12 13 14 15 15 14 14 13 11 11 10 10 10 9 9 9 8 8 8 8 7 7 7 7 7 7 7 6 6 6 5 3 3 3 3 4 5 6 7 7 7 7 8 8 8 8 8 8 7 7 7 8 7 7 6 6
Wind_Direction
201 172 145 169 205 202 220 239 253 262 269 273 297 354 15 143 194 191 181 192 194 177 172 184 197 200 200 194 196 208 210 202 194 192 186 171 166 170 174 178 180 181 181 180 177 174 173 179 183 183 187 190 192 201 208 208 208 210 213 216 219 224 230 232 228 224 227 229 223 215 210 208 208 206 207 206 198 191 194 193 194 197 197 197 198 197 199
230 216 173 150 185 192 191 207 225 237 250 257 263 294 333 338 279 205 175 171 171 168 171 181 191 195 191 185 187 191 196 198 190 185 188 183 174 172 179 183 182 184 188 188 188 185 178 176 178 178 181 183 184 192 198 198 199 202 207 216 224 228 226 223 221 219 220 220 214 213 215 213 208 206 210 208 195 186 191 192 191 197 196 196 199 198 199
231 227 201 168 158 221 211 178 183 208 222 238 250 261 294 320 189 168 165 161 160 166 176 179 180 184 185 187 191 188 188 190 181 172 176 179 175 173 176 181 184 188 192 192 191 190 184 181 181 181 182 182 185 191 194 196 200 203 210 217 218 214 209 209 209 209 211 212 205 206 213 213 206 206 211 208 193 184 192 195 193 194 193 192 195 195 194
201 214 205 192 186 205 200 164 151 182 204 218 232 245 264 269 192 172 169 165 165 172 179 179 180 184 188 196 200 193 185 183 182 179 178 181 185 183 183 187 189 192 195 192 190 190 188 185 187 189 190 188 189 192 194 198 200 200 203 203 198 199 200 195 192 192 198 203 202 204 208 206 203 206 209 207 199 189 189 193 195 198 199 196 196 199 201
176 184 193 183 176 184 193 153 134 158 171 174 177 193 218 232 223 196 180 173 174 179 183 186 188 190 194 198 195 188 183 183 187 195 197 198 203 207 211 212 214 216 206 192 189 191 187 185 190 195 195 192 190 191 192 192 190 186 188 189 190 195 195 189 188 189 193 198 202 205 205 203 205 208 207 207 206 198 196 198 199 201 204 204 203 206 207
195 210 178 156 157 168 168 117 129 159 155 161 179 184 184 189 205 209 195 186 184 185 188 194 195 192 191 188 183 180 182 185 190 195 199 202 210 225 236 237 239 230 206 190 194 198 188 180 183 189 192 192 189 188 189 190 189 187 188 192 193 192 190 190 193 197 199 201 202 205 207 209 212 214 212 210 211 210 209 209 209 209 210 210 210 211 209
169 175 132 129 157 171 137 119 157 176 163 168 189 184 173 175 187 207 215 211 205 197 194 198 201 197 188 183 182 180 180 185 190 190 192 199 205 219 235 241 246 232 202 192 201 203 192 182 181 182 185 188 191 191 189 189 192 193 194 197 198 197 197 200 202 204 205 207 208 211 214 218 222 224 225 224 224 224 221 218 219 221 220 220 220 219 219
141 143 138 143 166 151 136 123 144 162 160 164 179 176 169 175 185 199 209 209 206 200 192 192 196 194 185 180 180 178 175 179 185 188 197 207 203 198 206 219 230 230 209 199 199 196 192 195 198 192 184 184 190 191 185 182 187 194 199 203 205 206 206 208 209 208 207 206 209 213 216 220 224 227 230 233 234 236 237 235 233 232 231 231 232 232 233
126 129 132 134 133 133 135 137 146 151 150 157 172 176 175 182 189 193 202 206 204 198 191 191 193 187 180 177 174 171 171 174 178 183 189 192 191 192 200 204 204 211 217 215 212 211 206 203 203 199 191 188 193 194 189 186 188 193 196 197 201 207 211 214 215 214 214 215 217 218 219 221 223 225 228 231 232 235 238 240 238 236 236 238 240 242 243
140 129 122 124 130 137 132 140 155 162 155 157 170 174 174 183 188 187 194 207 215 210 193 183 182 176 177 185 185 181 182 184 185 188 186 184 189 198 204 209 215 220 220 218 221 224 218 205 199 200 200 199 201 204 207 205 202 203 203 201 202 208 217 223 226 227 228 230 231 231 230 230 230 231 233 234 235 236 237 239 239 239 241 242 244 246 249
151 138 119 112 153 171 156 152 167 184 184 175 172 171 180 188 186 185 188 197 217 212 183 166 164 167 175 191 197 194 197 200 199 200 200 200 206 215 220 229 235 228 217 213 216 220 220 215 212 214 215 214 215 218 222 226 227 228 228 227 224 222 224 229 232 234 235 237 239 240 241 241 242 242 242 242 243 243 243 243 244 245 247 249 250 253 256
154 150 124 115 137 161 170 169 171 189 201 184 173 175 196 196 191 190 193 201 215 208 184 167 165 173 184 196 200 197 203 213 213 214 216 216 219 224 227 231 230 219 209 209 211 213 217 218 218 219 220 221 223 225 226 228 229 228 229 231 231 231 232 234 235 236 237 239 242 245 248 250 252 253 253 253 252 251 250 249 249 250 251 252 254 256 259
146 154 139 130 137 155 170 175 175 188 192 182 180 188 190 189 190 191 197 211 219 208 191 178 175 185 198 206 207 214 226 231 228 224 222 220 222 225 224 220 216 208 204 204 205 206 209 212 213 214 215 219 222 224 225 226 226 226 227 230 232 233 235 238 239 240 242 244 245 248 251 253 255 257 258 258 258 256 254 254 254 255 256 256 257 257 259
125 143 142 130 127 150 169 179 179 182 187 193 199 195 183 179 184 188 195 210 215 205 195 188 191 201 209 211 220 243 252 243 235 230 225 222 221 220 219 218 217 212 207 207 208 210 212 214 217 218 219 221 224 226 229 232 235 237 238 240 241 242 243 245 247 248 249 250 250 252 253 255 257 258 258 259 259 259 258 258 258 258 258 259 259 259 259
115 132 131 126 138 166 166 171 178 184 196 211 207 190 178 174 178 184 189 198 209 209 203 200 207 217 225 233 247 257 252 241 232 229 228 225 220 214 213 217 220 215 210 211 215 218 219 220 222 223 224 225 228 231 234 237 240 243 246 247 248 248 249 250 251 252 253 253 254 254 255 257 258 259 260 260 260 260 259 259 258 258 258 259 259 259 259
137 149 134 141 166 169 159 179 194 197 207 218 208 192 183 180 184 192 194 195 205 214 217 221 229 235 241 248 254 254 252 248 239 229 229 227 219 212 210 213 215 213 210 212 219 223 227 228 229 231 233 235 237 239 241 243 244 246 247 248 248 249 249 250 252 253 255 257 258 260 261 262 262 263 263 263 263 263 262 262 261 261 260 260 260 260 259
108 116 126 133 121 82 50 20 182 192 202 198 194 199 199 194 197 206 210 206 206 209 216 225 232 237 243 246 247 249 249 248 246 244 244 239 231 223 217 213 215 217 217 222 229 234 236 238 239 241 243 243 245 246 247 248 250 250 251 252 253 253 254 255 256 258 260 261 263 264 265 265 265 265 265 265 265 265 265 265 265 264 264 263 263 263 262
99 98 98 93 75 74 64 77 160 170 176 166 171 203 213 205 200 205 213 216 214 214 222 232 239 244 248 251 255 259 258 256 253 254 256 252 241 234 229 224 223 225 228 233 240 244 245 246 245 245 246 247 248 248 249 250 251 251 252 254 256 257 259 260 261 261 262 263 264 265 266 266 266 266 266 265 265 264 264 263 263 263 263 263 263 262 262
78 110 111 100 66 124 136 177 171 168 171 170 180 206 217 211 204 203 208 214 213 211 216 225 234 240 241 243 252 259 263 266 267 267 263 251 237 234 237 237 236 237 239 244 248 252 253 254 254 254 254 253 253 253 253 253 252 253 255 256 258 259 260 261 262 262 263 264 264 265 265 265 265 265 265 265 265 264 264 263 263 263 263 263 262 262 262
60 130 146 169 222 181 185 196 192 195 202 201 202 206 212 216 213 207 209 212 210 208 213 224 236 244 248 253 256 257 259 263 266 265 258 246 240 244 249 251 252 252 253 255 257 257 259 260 262 263 262 261 260 258 257 256 257 258 260 261 261 261 262 262 263 264 264 265 265 265 266 266 266 267 267 267 267 268 268 268 267 267 266 266 266 266 265
75 164 210 245 159 160 188 202 210 220 225 227 228 224 220 220 222 225 230 233 234 240 248 254 258 262 264 266 266 265 264 263 261 258 251 246 246 249 251 254 258 261 262 262 262 263 265 267 266 265 263 262 262 261 260 261 262 264 264 265 265 266 267 268 269 271 272 272 272 271 271 271 272 272 272 272 272 272 273 273 272 271 271 271 271 271 270
284 259 272 279 139 154 187 201 221 241 240 235 234 233 232 233 235 240 247 253 258 261 262 264 268 270 270 269 268 267 267 266 263 258 251 247 247 248 252 255 259 264 267 268 267 268 270 269 267 264 262 261 261 262 264 266 268 269 270 272 273 275 277 278 279 279 279 278 278 278 277 277 277 277 278 278 278 277 275 275 275 275 275 275 274 274 273
271 261 269 264 252 264 263 269 288 305 291 249 234 232 236 241 244 249 254 259 264 266 267 267 266 264 263 263 263 264 264 264 263 259 254 253 254 257 262 267 269 271 272 270 268 267 266 265 264 262 260 260 261 263 266 268 270 272 274 276 278 280 281 282 283 283 282 282 283 283 283 283 282 281 280 279 279 279 278 277 276 275 275 276 276 276 275
260 239 220 212 241 270 278 289 299 307 304 277 246 234 237 241 246 252 256 258 260 262 265 265 260 253 252 255 260 265 267 267 266 265 263 263 264 265 268 271 272 272 269 265 263 263 261 261 260 258 257 259 262 265 269 272 276 280 284 286 287 288 289 289 289 288 288 288 287 287 286 285 285 284 283 280 278 279 280 281 280 278 276 275 275 276 276
271 237 217 226 263 268 261 273 294 301 301 299 294 285 277 269 262 262 263 260 258 259 262 264 260 253 251 255 261 265 267 269 270 270 270 270 271 271 270 269 267 264 262 261 262 263 262 261 259 258 259 262 266 273 278 283 288 292 294 295 296 296 297 296 295 293 292 290 289 288 288 287 287 288 288 287 285 283 282 282 283 283 282 279 276 276 276
293 243 219 237 260 240 219 219 243 239 245 284 301 303 300 294 290 288 286 282 275 269 266 266 265 261 258 260 263 264 264 265 266 268 269 270 270 269 267 262 258 257 257 261 264 263 260 257 256 257 262 268 276 284 289 293 297 299 300 300 300 300 300 298 296 294 292 291 290 290 290 291 293 293 293 293 292 290 287 283 281 281 282 281 279 276 274
347 286 238 245 238 222 213 223 242 234 234 263 287 294 294 294 295 294 290 285 278 271 267 266 268 270 270 265 263 262 262 264 265 266 267 266 265 263 259 254 251 253 256 258 258 254 251 251 251 255 264 275 284 289 294 299 303 304 303 302 301 301 301 299 296 293 291 291 293 294 296 298 298 297 296 295 293 292 289 286 282 280 280 280 279 278 276
291 298 284 253 228 219 221 231 241 243 249 263 277 284 286 288 289 287 281 276 275 276 277 275 274 275 273 271 270 265 260 259 262 264 265 264 261 257 253 251 251 253 254 250 242 238 239 243 247 254 266 278 285 291 300 307 310 309 307 305 304 304 302 300 298 296 295 297 299 301 303 303 302 302 302 302 301 301 299 296 294 292 287 282 278 277 279
279 273 273 270 256 244 245 248 247 251 262 274 283 287 288 289 290 288 284 282 285 287 287 287 287 283 274 277 289 287 275 265 263 263 263 263 260 256 254 254 252 249 244 236 229 225 228 236 246 256 267 278 288 300 310 315 315 314 313 313 311 309 306 304 303 302 303 304 307 309 310 311 311 312 315 318 320 321 319 316 312 308 303 296 286 281 282
299 289 288 287 285 282 280 274 269 277 288 293 294 294 296 303 310 312 313 312 310 307 302 299 301 304 301 301 306 302 291 280 271 265 262 260 257 254 252 249 243 236 231 228 224 222 223 233 247 257 267 281 297 310 315 316 318 321 322 321 317 314 312 310 308 308 309 311 315 321 325 325 324 326 331 336 338 339 340 339 335 329 323 318 309 297 294
303 301 304 299 297 300 294 278 265 267 280 290 299 305 309 314 317 318 318 318 318 315 308 302 302 306 308 307 306 303 294 286 278 270 263 258 254 250 243 236 230 227 226 225 224 222 225 237 250 257 267 288 304 311 312 315 325 333 331 325 321 319 317 315 313 315 317 318 326 339 340 333 330 334 342 347 349 352 356 357 354 352 353 351 343 330 321
290 285 291 285 279 278 270 257 251 257 271 284 294 299 304 310 313 314 315 316 315 313 307 300 297 299 300 300 302 303 303 299 291 279 266 257 250 244 235 228 225 223 221 222 224 225 230 243 253 256 265 289 304 307 308 317 331 337 333 329 326 326 326 323 320 320 321 323 334 347 343 333 327 332 344 354 1 5 8 9 9 12 16 16 12 3 349
279 273 278 282 280 270 251 235 231 233 241 255 269 279 290 300 302 303 306 310 310 309 307 300 293 290 289 291 298 307 312 310 304 290 274 259 248 240 232 225 223 220 217 218 223 228 238 249 255 258 266 290 300 301 305 318 331 336 336 336 338 340 336 329 322 319 322 327 337 342 334 324 321 327 344 358 3 5 10 19 27 31 29 25 22 18 11
267 264 269 274 275 267 255 241 233 234 241 256 270 275 278 281 283 288 296 301 304 308 307 290 278 278 285 292 300 307 312 313 311 304 292 273 255 243 232 223 218 214 212 216 224 231 242 252 257 263 278 292 293 295 302 315 326 334 340 345 350 350 340 328 320 319 324 330 335 331 318 313 314 322 340 356 357 354 2 19 32 31 23 19 18 17 16
268 269 269 269 270 267 256 241 240 253 267 279 282 277 270 268 273 281 288 293 300 312 308 279 265 276 291 294 297 302 306 309 313 315 312 297 270 247 231 220 214 211 212 219 228 235 243 250 258 270 285 287 284 290 302 311 319 332 344 350 353 351 340 328 323 324 325 329 334 332 320 313 312 318 333 352 358 354 355 7 15 9 5 8 14 16 16
270 271 270 269 271 266 245 229 244 263 274 279 277 273 270 270 273 277 282 288 298 310 301 268 263 281 293 293 297 302 300 298 303 311 314 310 292 257 230 219 215 216 219 225 233 241 247 254 262 275 282 280 279 288 303 307 314 331 345 350 352 349 341 335 334 332 328 328 331 332 325 321 324 327 330 340 354 359 355 356 1 359 358 6 15 18 16
275 272 272 272 274 272 258 245 252 263 269 274 276 274 270 268 269 272 277 282 289 296 283 256 258 284 307 310 309 307 295 283 281 284 287 286 278 262 244 231 226 226 229 232 238 245 253 260 267 274 277 276 279 289 301 305 313 329 344 349 350 348 344 344 346 342 333 330 331 331 325 323 329 336 331 328 340 349 344 339 343 345 348 356 3 7 8
290 281 276 272 271 274 275 268 263 263 268 277 281 277 265 258 260 265 270 273 278 284 276 256 257 294 324 328 325 318 301 285 276 274 274 271 263 255 250 245 240 237 236 238 243 250 257 262 267 270 273 275 279 286 295 302 311 324 340 350 350 348 350 355 357 352 342 336 335 334 327 321 325 336 339 333 333 333 327 324 328 329 330 336 342 347 356
302 294 286 277 271 270 271 268 265 267 273 280 280 273 262 254 256 264 270 273 274 273 266 252 250 280 310 327 333 326 306 286 275 271 270 267 261 254 251 249 248 246 245 246 249 253 257 261 265 269 272 274 277 281 289 301 308 316 331 348 351 352 359 6 6 3 356 347 341 337 330 324 325 333 342 343 338 333 327 322 319 316 314 316 321 330 345
307 300 296 294 287 275 263 252 250 258 271 280 277 268 264 264 263 264 267 267 266 266 265 257 252 268 295 323 334 326 306 290 282 277 271 266 263 257 252 249 250 250 250 250 251 254 257 260 264 268 271 272 274 279 289 300 301 304 319 344 352 358 8 14 15 14 13 9 359 350 342 335 330 333 339 342 340 336 333 325 316 309 306 307 310 320 336
308 304 303 311 313 294 268 254 251 256 263 264 260 256 258 261 263 264 262 260 261 267 273 272 266 272 288 308 323 324 313 298 289 283 274 267 262 254 244 242 243 245 247 249 251 251 253 257 260 263 264 265 269 275 285 291 285 285 300 347 0 5 16 22 22 21 22 22 19 13 5 357 349 343 344 346 346 342 335 326 317 312 312 312 312 317 329
304 304 305 313 320 307 279 267 266 266 261 254 250 251 253 254 255 256 253 251 257 267 276 279 278 280 287 299 314 323 322 311 302 292 278 267 261 250 240 241 245 248 251 251 245 241 246 252 255 253 251 253 261 271 280 253 248 261 281 6 19 19 24 26 26 27 28 29 29 26 22 18 13 7 0 358 358 355 347 334 320 312 308 307 308 310 315
301 299 302 310 315 306 289 272 263 258 255 255 255 256 259 264 269 270 266 260 261 267 274 280 283 284 285 291 304 316 321 319 313 305 293 278 265 251 242 245 251 255 253 244 237 236 242 247 246 239 238 245 256 273 114 147 175 193 206 5 48 47 39 29 23 26 30 32 33 32 30 29 27 24 20 16 12 9 5 357 343 325 312 304 301 301 302
307 299 297 300 300 298 298 290 268 250 246 251 259 263 267 270 271 273 275 275 272 272 276 279 281 280 277 277 289 306 317 320 316 308 297 285 265 244 236 240 246 241 229 224 226 229 230 227 220 212 211 209 167 115 114 126 134 133 128 120 95 76 64 48 32 29 31 33 34 34 33 33 34 34 33 33 32 30 27 21 10 355 342 328 313 305 303
312 305 297 292 287 283 285 293 289 267 253 253 258 261 261 258 254 258 266 270 268 267 269 273 275 274 269 265 272 290 304 314 320 311 291 274 260 245 232 226 221 215 209 207 208 207 202 196 189 176 158 142 127 118 115 117 117 115 110 102 90 80 72 63 54 48 43 39 37 34 31 31 32 33 34 36 39 40 41 41 39 33 29 29 35 39 39
307 306 298 288 282 279 279 283 287 286 278 268 258 251 248 247 248 252 261 267 268 267 268 270 271 269 264 262 267 278 289 303 321 329 308 271 249 236 222 201 189 190 192 188 182 182 182 177 168 155 144 134 125 120 119 117 111 105 98 91 83 77 70 64 59 55 51 49 45 40 33 30 29 29 30 31 33 35 38 41 42 42 42 44 45 46 47
299 300 296 287 280 278 279 280 282 283 281 274 263 249 244 247 253 257 260 265 269 271 270 270 270 268 262 258 258 263 273 288 315 336 330 313 230 207 202 176 163 170 178 173 166 168 169 163 154 146 137 126 120 117 116 113 106 97 89 83 77 72 65 58 53 50 48 47 47 45 41 35 31 28 27 27 28 29 31 34 37 39 40 42 43 43 42
295 296 296 291 283 276 272 272 276 279 277 269 261 252 245 248 256 264 268 270 270 269 271 273 276 274 269 262 254 252 258 264 271 314 317 310 262 174 173 160 151 157 164 162 160 162 160 150 142 137 128 117 110 104 101 99 98 93 83 72 66 63 59 52 45 41 38 38 39 41 42 40 37 34 30 27 26 27 28 29 32 36 38 40 42 42 42
297 297 296 293 288 279 270 266 267 267 264 261 259 255 250 249 254 262 269 270 268 265 268 272 274 273 270 266 258 252 254 253 239 215 229 269 258 195 175 164 159 161 164 162 160 160 156 147 139 135 126 110 97 85 72 62 65 74 73 65 55 48 46 43 38 32 28 27 26 29 32 34 35 35 35 33 30 29 27 26 28 32 34 36 39 40 40
300 299 296 291 285 280 275 270 267 262 256 254 254 253 252 253 254 258 261 263 260 260 264 268 270 270 269 267 261 253 249 249 246 235 223 225 236 235 217 195 184 183 184 183 184 185 184 182 182 184 195 241 280 308 336 336 329 336 0 20 31 32 31 29 26 23 21 19 18 17 19 22 24 27 30 33 34 33 30 25 23 26 29 31 34 37 38
305 303 298 290 283 278 276 272 266 256 248 244 245 247 250 251 250 251 253 253 253 253 257 259 262 265 267 268 266 258 249 246 248 246 237 228 228 234 235 233 232 230 227 225 226 226 223 223 227 229 228 234 252 266 275 280 285 292 300 305 313 329 356 10 12 8 7 9 10 9 10 11 12 13 17 23 28 32 34 31 27 25 25 25 26 30 34
310 309 303 292 281 277 274 270 261 250 242 240 241 242 244 247 252 258 261 260 258 259 260 261 263 264 264 265 266 264 256 249 249 250 249 243 238 235 235 237 239 241 241 242 245 247 246 244 245 246 244 242 245 252 258 265 271 276 280 282 285 288 297 318 342 353 358 1 2 1 1 2 2 2 5 10 15 23 31 36 35 33 31 29 28 27 28
Height
3048 3049 3050 3051 3052 3052 3052 3052 3053 3055 3055 3056 3056 3056 3056 3057 3056 3057 3058 3060 3062 3065 3067 3069 3070 3070 3071 3072 3072 3072 3073 3075 3077 3079 3080 3080 3081 3083 3084 3085 3086 3087 3088 3089 3090 3092 3093 3094 3095 3097 3097 3098 3100 3101 3102 3103 3105 3106 3108 3109 3111 3113 3114 3116 3117 3117 3118 3119 3120 3121 3122 3122 3124 3125 3127 3127 3126 3126 3127 3127 3127 3128 3128 3128 3129 3130 3131
3047 3047 3049 3050 3051 3051 3050 3050 3051 3053 3054 3055 3055 3056 3057 3057 3057 3057 3058 3060 3063 3066 3067 3068 3068 3068 3070 3071 3072 3072 3074 3075 3077 3079 3081 3082 3082 3083 3084 3084 3086 3087 3088 3089 3090 3091 3092 3093 3094 3096 3097 3098 3099 3099 3101 3102 3103 3105 3106 3108 3110 3111 3112 3113 3114 3115 3117 3118 3118 3119 3119 3120 3122 3124 3126 3126 3125 3125 3126 3126 3126 3126 3127 3128 3128 3129 3130
3045 3046 3047 3048 3050 3050 3049 3049 3049 3051 3052 3053 3054 3055 3056 3058 3058 3058 3059 3061 3063 3065 3066 3066 3067 3067 3068 3069 3070 3072 3073 3075 3078 3080 3081 3083 3083 3083 3083 3085 3087 3087 3088 3089 3089 3090 3091 3092 3093 3095 3096 3097 3098 3098 3100 3101 3102 3104 3105 3106 3108 3110 3110 3111 3111 3112 3114 3115 3116 3117 3118 3120 3122 3123 3124 3125 3124 3124 3124 3125 3125 3125 3126 3126 3127 3128 3129
3044 3045 3046 3047 3049 3050 3050 3049 3050 3051 3051 3052 3053 3055 3056 3058 3059 3060 3061 3061 3061 3063 3065 3066 3067 3068 3069 3068 3069 3071 3073 3075 3077 3078 3080 3082 3082 3082 3084 3086 3087 3088 3088 3088 3089 3090 3091 3092 3093 3094 3096 3097 3097 3098 3099 3100 3101 3103 3104 3106 3107 3108 3109 3109 3110 3111 3112 3113 3114 3115 3116 3118 3119 3120 3121 3123 3123 3122 3122 3123 3123 3123 3124 3125 3126 3127 3127
3044 3045 3046 3047 3049 3051 3051 3050 3050 3050 3051 3052 3053 3054 3056 3058 3059 3059 3060 3060 3061 3062 3064 3065 3067 3068 3069 3069 3069 3071 3072 3074 3076 3077 3079 3081 3082 3083 3085 3086 3088 3088 3088 3088 3089 3089 3090 3091 3092 3094 3095 3096 3096 3096 3097 3098 3100 3102 3103 3105 3106 3107 3108 3108 3109 3110 3111 3112 3113 3114 3115 3116 3117 3118 3119 3121 3121 3120 3119 3121 3122 3122 3123 3123 3124 3125 3126
3045 3046 3047 3048 3049 3051 3051 3051 3049 3049 3050 3051 3052 3054 3055 3057 3059 3059 3059 3060 3061 3062 3063 3064 3065 3067 3067 3068 3068 3070 3073 3075 3076 3077 3079 3081 3082 3084 3085 3086 3087 3087 3086 3087 3088 3089 3090 3090 3090 3092 3093 3095 3096 3096 3096 3097 3099 3100 3102 3104 3105 3106 3108 3108 3109 3110 3111 3112 3112 3113 3114 3115 3116 3117 3117 3118 3119 3118 3118 3120 3121 3121 3121 3122 3122 3123 3124
3044 3046 3047 3049 3050 3050 3050 3050 3049 3049 3050 3052 3053 3054 3055 3057 3058 3058 3059 3060 3061 3062 3062 3063 3064 3065 3066 3067 3068 3070 3073 3075 3077 3078 3080 3081 3082 3083 3084 3086 3087 3086 3086 3087 3088 3088 3089 3090 3091 3092 3093 3094 3095 3096 3095 3096 3098 3100 3102 3103 3104 3106 3107 3108 3109 3110 3110 3111 3112 3112 3113 3114 3114 3115 3116 3116 3116 3117 3117 3119 3119 3119 3119 3120 3120 3121 3122
3045 3046 3047 3049 3050 3050 3050 3051 3050 3049 3050 3052 3054 3054 3055 3056 3057 3057 3058 3059 3060 3061 3061 3061 3062 3063 3064 3065 3068 3069 3071 3073 3075 3077 3079 3080 3081 3083 3084 3085 3086 3087 3088 3088 3088 3088 3089 3092 3092 3093 3093 3094 3095 3096 3096 3096 3097 3099 3101 3102 3104 3106 3107 3108 3108 3109 3110 3110 3111 3111 3112 3113 3113 3113 3114 3114 3115 3115 3115 3116 3116 3116 3116 3116 3117 3118 3119
3045 3046 3048 3049 3050 3050 3050 3051 3052 3051 3050 3052 3053 3054 3054 3056 3056 3057 3059 3060 3060 3062 3062 3061 3062 3062 3064 3066 3068 3069 3070 3072 3074 3076 3078 3079 3081 3082 3083 3085 3086 3087 3089 3089 3090 3090 3091 3092 3093 3093 3094 3095 3096 3096 3097 3097 3097 3098 3100 3101 3103 3104 3106 3107 3107 3108 3109 3109 3109 3110 3110 3111 3111 3112 3112 3112 3112 3112 3112 3112 3113 3113 3113 3113 3114 3114 3115
3044 3046 3048 3050 3050 3051 3051 3051 3052 3052 3052 3053 3054 3054 3055 3055 3056 3058 3060 3061 3061 3062 3062 3062 3063 3064 3066 3069 3070 3071 3072 3073 3075 3077 3078 3079 3081 3082 3083 3084 3086 3087 3088 3089 3090 3091 3092 3093 3094 3094 3095 3096 3096 3096 3097 3098 3098 3098 3100 3101 3102 3102 3103 3104 3105 3106 3106 3107 3107 3107 3108 3108 3109 3109 3109 3109 3109 3109 3109 3109 3109 3109 3109 3110 3110 3111 3111
3043 3045 3047 3048 3049 3050 3050 3051 3051 3052 3052 3053 3054 3055 3055 3055 3056 3057 3059 3061 3062 3062 3062 3063 3064 3065 3067 3069 3071 3072 3072 3073 3074 3076 3077 3079 3080 3081 3083 3084 3085 3086 3087 3088 3089 3090 3091 3092 3093 3094 3095 3095 3096 3096 3096 3097 3098 3098 3099 3100 3100 3101 3101 3102 3102 3103 3103 3104 3104 3104 3105 3105 3105 3105 3106 3106 3106 3106 3106 3106 3106 3106 3106 3106 3106 3107 3107
3043 3045 3046 3048 3048 3049 3049 3050 3051 3052 3052 3053 3054 3054 3054 3054 3055 3057 3059 3060 3062 3062 3063 3064 3065 3066 3068 3069 3071 3071 3072 3073 3074 3076 3077 3078 3079 3080 3082 3083 3084 3085 3086 3087 3088 3089 3090 3091 3091 3092 3093 3093 3094 3095 3095 3095 3096 3096 3097 3097 3098 3099 3099 3100 3100 3101 3101 3101 3101 3102 3102 3102 3102 3102 3102 3102 3102 3102 3102 3102 3102 3102 3102 3102 3102 3103 3103
3044 3045 3046 3047 3048 3048 3049 3050 3050 3051 3052 3052 3052 3053 3053 3054 3055 3056 3058 3060 3061 3062 3063 3063 3064 3066 3068 3070 3071 3072 3073 3074 3074 3075 3076 3077 3078 3079 3080 3082 3082 3083 3085 3086 3087 3088 3089 3089 3090 3091 3091 3091 3092 3092 3093 3093 3094 3094 3095 3096 3096 3097 3098 3098 3098 3099 3099 3099 3099 3099 3099 3099 3099 3099 3099 3099 3099 3099 3098 3098 3098 3098 3098 3098 3098 3098 3099
3044 3045 3046 3047 3048 3049 3049 3050 3050 3051 3051 3051 3051 3052 3052 3054 3055 3056 3058 3059 3061 3061 3062 3063 3064 3066 3068 3069 3071 3072 3073 3073 3074 3075 3076 3077 3078 3079 3080 3081 3081 3082 3083 3084 3085 3086 3087 3088 3089 3089 3090 3090 3090 3090 3090 3091 3092 3092 3093 3094 3095 3095 3096 3096 3096 3096 3096 3096 3096 3096 3095 3095 3095 3095 3095 3095 3095 3095 3095 3094 3094 3094 3094 3094 3094 3093 3094
3045 3046 3046 3047 3049 3049 3049 3050 3050 3051 3051 3051 3051 3052 3053 3053 3055 3056 3058 3059 3060 3061 3062 3063 3064 3066 3067 3069 3070 3071 3071 3072 3073 3073 3074 3075 3076 3077 3079 3080 3080 3081 3082 3082 3083 3084 3085 3085 3086 3087 3087 3088 3088 3088 3089 3089 3090 3090 3091 3091 3092 3092 3092 3092 3092 3092 3092 3091 3091 3091 3091 3091 3091 3091 3091 3091 3090 3090 3089 3089 3089 3088 3088 3088 3088 3087 3087
3047 3047 3047 3048 3049 3049 3049 3050 3050 3051 3051 3051 3052 3053 3054 3054 3055 3057 3058 3059 3060 3061 3062 3064 3065 3066 3067 3068 3069 3070 3070 3071 3072 3073 3074 3074 3075 3076 3078 3079 3079 3080 3080 3081 3081 3081 3082 3083 3084 3084 3085 3085 3086 3086 3087 3087 3088 3088 3088 3088 3088 3087 3087 3087 3087 3087 3087 3087 3087 3087 3087 3087 3087 3086 3086 3086 3085 3084 3083 3083 3082 3082 3081 3081 3080 3080 3080
3048 3048 3049 3049 3050 3050 3050 3050 3050 3051 3052 3052 3053 3054 3055 3056 3057 3057 3058 3059 3060 3061 3063 3064 3065 3066 3067 3068 3068 3069 3070 3071 3071 3073 3074 3074 3075 3075 3076 3077 3078 3078 3078 3079 3079 3079 3080 3080 3081 3082 3082 3082 3083 3083 3084 3084 3084 3084 3084 3083 3083 3083 3083 3083 3083 3083 3083 3083 3082 3082 3081 3081 3080 3080 3079 3079 3078 3077 3076 3075 3075 3074 3074 3073 3073 3072 3072
3049 3050 3050 3050 3051 3051 3051 3051 3051 3052 3053 3054 3055 3055 3056 3057 3057 3058 3058 3059 3060 3061 3062 3063 3064 3065 3066 3067 3068 3068 3069 3069 3070 3071 3072 3073 3074 3073 3074 3074 3075 3076 3076 3076 3076 3077 3077 3078 3078 3079 3079 3079 3079 3080 3080 3080 3079 3079 3078 3078 3078 3078 3078 3078 3078 3078 3078 3077 3077 3076 3075 3074 3074 3073 3072 3071 3071 3070 3069 3068 3068 3067 3066 3066 3066 3065 3065
3050 3051 3051 3051 3052 3052 3053 3053 3053 3054 3054 3055 3056 3057 3057 3057 3057 3058 3058 3059 3060 3061 3061 3062 3063 3064 3065 3066 3067 3067 3067 3067 3068 3069 3070 3071 3071 3071 3071 3071 3072 3073 3074 3074 3075 3075 3074 3074 3075 3075 3075 3075 3075 3075 3075 3075 3074 3074 3074 3074 3074 3074 3074 3073 3073 3072 3072 3072 3071 3070 3069 3068 3067 3066 3065 3064 3064 3063 3062 3062 3061 3060 3059 3058 3058 3058 3057
3051 3051 3051 3052 3053 3053 3054 3054 3054 3055 3056 3056 3057 3057 3058 3058 3058 3059 3059 3060 3060 3061 3061 3061 3062 3063 3063 3064 3064 3064 3065 3066 3067 3068 3068 3069 3069 3069 3068 3068 3069 3070 3071 3072 3072 3072 3071 3072 3072 3072 3072 3071 3071 3071 3071 3070 3070 3070 3070 3070 3070 3069 3069 3068 3068 3067 3067 3066 3066 3065 3064 3063 3062 3060 3059 3058 3057 3056 3055 3055 3054 3053 3052 3051 3051 3050 3050
3051 3051 3051 3052 3053 3054 3054 3054 3054 3055 3055 3056 3057 3057 3058 3058 3059 3059 3059 3060 3060 3061 3061 3061 3061 3062 3062 3063 3062 3062 3063 3064 3065 3066 3067 3067 3067 3067 3066 3066 3066 3067 3068 3068 3068 3068 3068 3069 3069 3069 3068 3068 3068 3067 3067 3066 3066 3066 3066 3066 3065 3065 3065 3064 3063 3063 3062 3061 3060 3059 3058 3057 3056 3055 3054 3053 3052 3051 3050 3048 3047 3046 3045 3045 3044 3044 3043
3051 3051 3051 3052 3053 3054 3054 3054 3054 3055 3055 3055 3056 3057 3057 3058 3058 3059 3059 3059 3060 3060 3061 3061 3061 3061 3061 3061 3061 3061 3061 3062 3063 3064 3065 3065 3064 3064 3064 3064 3065 3065 3065 3065 3065 3065 3065 3065 3065 3065 3065 3065 3064 3063 3063 3063 3063 3062 3062 3062 3061 3061 3060 3060 3059 3058 3057 3056 3055 3054 3053 3052 3052 3050 3049 3048 3046 3045 3044 3043 3042 3040 3039 3039 3038 3038 3037
3051 3051 3052 3053 3053 3053 3054 3054 3055 3055 3055 3055 3056 3056 3057 3057 3057 3058 3058 3058 3059 3059 3059 3059 3059 3060 3060 3059 3059 3059 3060 3060 3061 3061 3061 3062 3062 3061 3061 3062 3062 3062 3062 3062 3061 3061 3061 3062 3062 3062 3062 3061 3061 3061 3060 3060 3060 3059 3059 3059 3058 3057 3057 3056 3055 3054 3053 3052 3051 3050 3048 3047 3047 3046 3045 3044 3042 3040 3039 3038 3037 3036 3035 3033 3033 3032 3031
3051 3052 3052 3053 3053 3053 3054 3054 3054 3055 3055 3056 3056 3056 3056 3057 3057 3057 3057 3057 3057 3057 3057 3057 3057 3058 3058 3058 3057 3057 3058 3058 3058 3058 3058 3059 3059 3059 3059 3059 3059 3059 3059 3058 3058 3058 3058 3059 3059 3059 3059 3059 3058 3058 3058 3057 3057 3056 3056 3055 3054 3053 3052 3051 3050 3049 3048 3047 3046 3045 3044 3043 3042 3041 3040 3039 3038 3037 3035 3033 3032 3031 3030 3029 3028 3026 3025
3052 3052 3053 3053 3053 3053 3053 3054 3054 3054 3054 3055 3055 3056 3056 3056 3056 3056 3056 3056 3056 3055 3055 3055 3056 3056 3056 3056 3056 3055 3055 3054 3054 3054 3055 3055 3056 3056 3056 3056 3056 3056 3055 3055 3055 3056 3056 3056 3056 3056 3056 3056 3056 3055 3054 3054 3053 3053 3051 3050 3049 3048 3047 3046 3045 3044 3043 3042 3042 3041 3040 3039 3038 3036 3035 3034 3033 3032 3031 3029 3027 3025 3024 3023 3022 3021 3020
3053 3053 3053 3053 3053 3053 3053 3053 3053 3053 3053 3054 3054 3054 3055 3055 3055 3055 3054 3054 3053 3053 3053 3053 3053 3054 3055 3055 3054 3053 3052 3052 3051 3051 3052 3052 3052 3053 3053 3053 3053 3053 3053 3053 3053 3053 3054 3054 3054 3054 3054 3053 3053 3052 3052 3051 3050 3049 3048 3047 3045 3044 3043 3042 3041 3041 3040 3039 3038 3037 3036 3035 3034 3033 3031 3030 3028 3027 3026 3025 3024 3022 3019 3017 3016 3016 3015
3052 3053 3053 3053 3053 3053 3053 3054 3054 3054 3054 3054 3054 3054 3054 3054 3054 3054 3053 3052 3051 3050 3050 3051 3051 3052 3052 3052 3052 3051 3050 3049 3049 3049 3049 3049 3050 3050 3050 3050 3050 3050 3050 3051 3051 3051 3051 3052 3052 3052 3052 3051 3051 3050 3050 3049 3048 3047 3046 3044 3043 3042 3041 3039 3039 3038 3037 3036 3036 3035 3034 3032 3031 3030 3028 3026 3025 3023 3021 3020 3019 3018 3016 3014 3011 3009 3009
3052 3053 3053 3053 3053 3053 3053 3054 3054 3054 3054 3054 3054 3054 3053 3053 3052 3052 3051 3050 3049 3048 3048 3049 3050 3050 3050 3049 3049 3048 3048 3047 3047 3047 3047 3047 3047 3047 3047 3047 3048 3048 3048 3049 3049 3049 3050 3050 3051 3051 3050 3050 3049 3048 3048 3047 3046 3045 3043 3042 3041 3039 3038 3037 3036 3035 3035 3034 3033 3033 3031 3030 3028 3027 3025 3023 3021 3019 3017 3015 3013 3012 3011 3010 3007 3005 3003
3053 3053 3053 3053 3053 3053 3053 3053 3052 3053 3053 3053 3053 3052 3051 3051 3050 3050 3049 3049 3048 3047 3046 3046 3047 3047 3047 3046 3046 3045 3045 3045 3045 3045 3045 3045 3045 3045 3045 3045 3046 3046 3046 3047 3047 3047 3048 3049 3049 3049 3049 3048 3047 3047 3046 3045 3044 3042 3041 3040 3039 3037 3036 3035 3034 3033 3033 3032 3031 3030 3029 3028 3026 3024 3022 3020 3018 3016 3014 3012 3009 3007 3006 3005 3004 3002 3000
3053 3052 3052 3052 3052 3052 3052 3051 3051 3051 3051 3051 3051 3050 3050 3049 3048 3048 3047 3047 3046 3046 3045 3044 3044 3045 3045 3044 3044 3043 3043 3043 3043 3043 3043 3043 3042 3043 3043 3043 3044 3044 3044 3045 3045 3046 3046 3047 3047 3047 3047 3046 3046 3045 3044 3043 3042 3041 3039 3038 3036 3035 3034 3033 3032 3031 3031 3030 3029 3028 3027 3025 3024 3022 3020 3019 3017 3015 3012 3010 3007 3005 3003 3001 3000 2999 2998
3052 3052 3052 3052 3051 3051 3051 3050 3050 3050 3050 3049 3049 3049 3048 3048 3047 3046 3046 3045 3045 3044 3043 3043 3043 3043 3043 3042 3042 3042 3042 3041 3041 3041 3040 3040 3040 3041 3041 3041 3042 3042 3043 3043 3044 3044 3045 3045 3045 3045 3045 3045 3044 3044 3043 3042 3040 3039 3038 3036 3035 3034 3033 3031 3031 3030 3029 3029 3028 3027 3025 3024 3022 3021 3020 3018 3016 3014 3011 3009 3006 3004 3002 3001 3000 2998 2997
3051 3050 3050 3050 3050 3050 3050 3049 3049 3049 3049 3048 3048 3048 3047 3047 3047 3046 3046 3045 3044 3043 3043 3042 3042 3041 3041 3041 3041 3040 3040 3039 3039 3039 3038 3038 3038 3039 3039 3040 3040 3041 3041 3042 3042 3043 3044 3043 3044 3044 3044 3043 3043 3043 3042 3040 3039 3038 3037 3035 3033 3032 3031 3030 3029 3029 3028 3027 3027 3026 3024 3023 3022 3021 3019 3017 3015 3013 3011 3008 3006 3004 3003 3001 3000 2998 2997
3049 3049 3048 3048 3048 3048 3048 3047 3048 3048 3047 3047 3047 3047 3047 3047 3046 3046 3045 3044 3044 3043 3042 3041 3041 3040 3040 3040 3040 3039 3039 3038 3037 3037 3037 3036 3036 3037 3037 3038 3039 3039 3040 3041 3041 3042 3042 3042 3042 3042 3042 3042 3042 3042 3041 3039 3038 3037 3036 3034 3032 3031 3030 3029 3028 3028 3027 3026 3026 3025 3024 3023 3021 3020 3018 3017 3015 3013 3011 3009 3007 3005 3003 3002 3000 2999 2997
3048 3047 3047 3046 3047 3046 3046 3046 3046 3047 3046 3046 3046 3046 3046 3046 3045 3045 3044 3044 3043 3042 3042 3041 3040 3040 3040 3039 3039 3038 3038 3037 3037 3036 3035 3035 3035 3035 3036 3036 3037 3038 3039 3039 3040 3041 3041 3040 3041 3041 3041 3041 3041 3040 3039 3038 3037 3036 3035 3033 3031 3030 3029 3028 3027 3027 3026 3025 3025 3025 3024 3022 3020 3019 3018 3016 3014 3013 3011 3009 3007 3005 3004 3002 3001 2999 2997
3046 3045 3045 3044 3044 3044 3044 3045 3045 3046 3046 3045 3045 3045 3045 3044 3044 3044 3043 3043 3042 3042 3041 3040 3040 3039 3039 3039 3038 3038 3037 3037 3036 3035 3035 3034 3034 3034 3034 3035 3036 3037 3038 3038 3039 3039 3039 3039 3039 3040 3040 3040 3040 3039 3038 3037 3036 3035 3034 3032 3031 3030 3028 3027 3026 3025 3025 3024 3024 3023 3022 3021 3020 3018 3017 3015 3014 3012 3011 3010 3008 3006 3005 3004 3002 3000 2999
3044 3043 3042 3042 3042 3042 3042 3043 3044 3044 3044 3044 3044 3043 3043 3042 3042 3042 3042 3041 3041 3041 3040 3039 3039 3039 3039 3038 3037 3037 3037 3036 3036 3035 3035 3034 3034 3034 3034 3035 3036 3036 3037 3038 3038 3038 3038 3038 3039 3039 3039 3039 3038 3038 3037 3036 3035 3034 3033 3032 3030 3029 3028 3027 3025 3024 3023 3023 3022 3022 3021 3020 3019 3017 3016 3015 3013 3012 3011 3009 3008 3006 3005 3004 3003 3001 3000
3043 3042 3041 3040 3040 3041 3041 3042 3042 3042 3042 3042 3042 3041 3041 3040 3040 3040 3040 3040 3040 3040 3039 3039 3039 3038 3038 3037 3037 3036 3036 3036 3035 3035 3035 3035 3034 3034 3034 3035 3035 3036 3036 3036 3036 3036 3036 3037 3037 3037 3037 3037 3036 3036 3036 3035 3034 3033 3032 3031 3030 3029 3027 3026 3024 3023 3022 3022 3021 3021 3020 3019 3017 3016 3015 3014 3013 3012 3011 3009 3008 3007 3005 3004 3003 3002 3001
3042 3041 3040 3040 3039 3039 3039 3039 3039 3039 3040 3040 3040 3039 3039 3039 3038 3038 3038 3038 3039 3039 3039 3038 3038 3037 3037 3036 3036 3035 3035 3035 3034 3034 3034 3034 3034 3034 3034 3034 3034 3035 3035 3035 3035 3035 3036 3036 3036 3036 3036 3035 3035 3035 3035 3034 3033 3032 3032 3031 3030 3028 3027 3025 3024 3023 3022 3021 3020 3019 3018 3017 3016 3016 3015 3014 3013 3011 3010 3009 3008 3007 3005 3004 3003 3002 3001
3040 3040 3039 3038 3038 3038 3038 3038 3037 3037 3038 3038 3038 3038 3037 3037 3037 3037 3037 3037 3037 3038 3038 3037 3037 3036 3036 3035 3035 3034 3034 3033 3033 3033 3033 3033 3033 3033 3033 3033 3033 3033 3033 3034 3034 3034 3034 3034 3034 3034 3034 3033 3033 3033 3033 3033 3032 3031 3031 3030 3029 3028 3027 3025 3023 3022 3021 3020 3019 3018 3017 3016 3015 3014 3014 3013 3012 3011 3010 3009 3008 3007 3005 3004 3003 3002 3001
3039 3039 3037 3036 3036 3035 3035 3035 3035 3036 3036 3036 3036 3036 3036 3036 3036 3036 3035 3036 3036 3036 3036 3036 3036 3035 3035 3035 3034 3033 3033 3032 3032 3031 3031 3031 3031 3031 3031 3031 3031 3031 3032 3032 3032 3032 3033 3033 3033 3032 3032 3032 3031 3032 3032 3031 3031 3031 3030 3030 3029 3028 3027 3025 3023 3022 3021 3020 3019 3018 3017 3015 3014 3013 3013 3012 3011 3010 3009 3008 3007 3006 3005 3004 3003 3002 3001
3037 3037 3036 3035 3034 3033 3033 3033 3034 3035 3035 3035 3035 3034 3035 3035 3035 3034 3034 3034 3034 3034 3035 3035 3035 3034 3034 3034 3033 3033 3032 3031 3030 3030 3030 3030 3030 3030 3030 3030 3029 3030 3030 3030 3031 3031 3031 3031 3031 3031 3030 3030 3030 3030 3030 3030 3030 3030 3030 3029 3029 3028 3026 3025 3024 3023 3021 3020 3019 3017 3016 3015 3014 3013 3012 3011 3011 3010 3009 3008 3007 3006 3005 3004 3003 3002 3002
3035 3034 3034 3033 3033 3033 3032 3033 3033 3033 3033 3033 3033 3033 3033 3033 3033 3033 3033 3033 3033 3033 3033 3033 3033 3033 3033 3032 3032 3031 3031 3030 3029 3029 3029 3028 3028 3028 3028 3028 3028 3028 3029 3029 3030 3029 3029 3029 3029 3029 3029 3029 3029 3029 3029 3029 3029 3029 3029 3029 3028 3028 3026 3025 3024 3023 3022 3020 3019 3018 3016 3015 3013 3012 3011 3011 3010 3009 3008 3007 3006 3005 3004 3003 3003 3002 3001
3032 3032 3031 3032 3032 3031 3031 3031 3031 3031 3031 3031 3031 3032 3032 3032 3032 3032 3032 3031 3031 3031 3031 3031 3031 3031 3031 3031 3031 3030 3030 3029 3028 3027 3027 3027 3027 3027 3027 3027 3027 3027 3028 3028 3028 3028 3027 3028 3028 3028 3028 3028 3028 3028 3028 3028 3028 3028 3028 3028 3028 3027 3026 3025 3024 3023 3022 3021 3020 3018 3017 3016 3014 3013 3011 3010 3010 3009 3008 3007 3006 3005 3004 3003 3002 3002 3001
3031 3030 3029 3030 3030 3030 3029 3029 3029 3029 3029 3030 3030 3030 3030 3030 3030 3030 3030 3030 3030 3030 3030 3030 3030 3030 3030 3030 3030 3029 3029 3028 3027 3026 3026 3026 3026 3026 3026 3026 3026 3027 3027 3027 3027 3027 3027 3027 3027 3027 3027 3027 3028 3027 3027 3027 3028 3028 3028 3028 3027 3027 3026 3025 3025 3024 3023 3022 3020 3019 3018 3017 3016 3014 3013 3011 3010 3009 3008 3007 3006 3005 3004 3003 3002 3001 3001
3029 3028 3028 3028 3028 3028 3028 3027 3027 3027 3027 3028 3028 3029 3029 3029 3029 3029 3029 3029 3028 3028 3028 3028 3028 3028 3028 3029 3028 3028 3028 3027 3027 3026 3025 3025 3024 3024 3025 3025 3025 3026 3026 3026 3026 3026 3026 3026 3026 3026 3027 3027 3027 3027 3027 3027 3028 3028 3028 3028 3027 3027 3026 3025 3025 3024 3023 3022 3021 3020 3019 3018 3017 3015 3014 3013 3012 3010 3009 3008 3007 3006 3005 3004 3003 3002 3001
3027 3026 3026 3026 3026 3026 3026 3026 3026 3025 3025 3025 3026 3026 3027 3027 3027 3027 3027 3027 3027 3027 3027 3026 3027 3027 3027 3027 3027 3027 3027 3026 3026 3026 3025 3025 3024 3024 3024 3024 3025 3025 3025 3025 3026 3026 3026 3026 3027 3027 3027 3027 3027 3027 3028 3028 3028 3028 3028 3028 3027 3027 3026 3026 3025 3025 3024 3023 3022 3021 3020 3018 3017 3016 3015 3014 3013 3012 3011 3009 3008 3007 3006 3005 3004 3003 3002
3025 3024 3024 3024 3024 3024 3024 3024 3024 3024 3024 3023 3024 3024 3024 3025 3025 3025 3025 3025 3025 3025 3025 3025 3025 3025 3025 3026 3026 3026 3026 3025 3025 3025 3024 3024 3024 3024 3024 3024 3024 3024 3025 3025 3026 3026 3026 3027 3027 3027 3027 3027 3028 3028 3028 3028 3028 3028 3028 3028 3027 3027 3027 3026 3026 3025 3024 3023 3022 3021 3020 3019 3018 3017 3016 3015 3014 3013 3011 3010 3009 3008 3007 3006 3005 3005 3004
3024 3023 3022 3022 3022 3022 3022 3022 3022 3022 3022 3022 3022 3022 3022 3022 3023 3023 3023 3023 3023 3023 3023 3023 3023 3024 3024 3024 3024 3024 3024 3025 3025 3024 3024 3024 3024 3024 3024 3024 3024 3024 3025 3025 3026 3026 3027 3027 3027 3027 3027 3027 3028 3028 3028 3028 3028 3028 3028 3028 3027 3027 3027 3026 3026 3025 3025 3024 3023 3022 3021 3020 3019 3018 3017 3016 3015 3014 3013 3012 3011 3010 3009 3008 3007 3006 3005
3022 3022 3021 3020 3020 3020 3020 3020 3020 3020 3020 3020 3020 3020 3020 3021 3021 3021 3021 3021 3021 3021 3021 3022 3022 3022 3022 3022 3023 3023 3023 3023 3024 3024 3024 3024 3024 3024 3024 3024 3024 3024 3025 3025 3026 3026 3027 3027 3027 3027 3027 3027 3028 3028 3028 3028 3028 3028 3028 3028 3027 3027 3027 3026 3026 3025 3025 3024 3023 3022 3022 3021 3020 3019 3018 3017 3016 3015 3014 3013 3012 3011 3010 3009 3009 3008 3007
3021 3020 3019 3019 3018 3018 3018 3018 3018 3018 3018 3018 3018 3018 3019 3019 3019 3019 3019 3019 3020 3020 3020 3020 3020 3020 3020 3020 3021 3021 3021 3022 3022 3023 3023 3023 3023 3023 3023 3024 3024 3024 3025 3025 3026 3026 3026 3027 3027 3027 3027 3027 3027 3027 3027 3028 3027 3027 3027 3027 3027 3027 3027 3026 3026 3025 3025 3024 3023 3023 3022 3021 3020 3020 3019 3018 3017 3016 3015 3014 3013 3012 3011 3010 3010 3009 3008
3019 3018 3018 3017 3017 3016 3016 3016 3016 3016 3016 3016 3016 3017 3017 3017 3018 3018 3018 3018 3018 3018 3018 3018 3018 3018 3018 3018 3018 3019 3019 3020 3021 3021 3022 3022 3022 3022 3023 3023 3024 3024 3024 3025 3025 3025 3026 3026 3026 3026 3027 3027 3027 3027 3027 3027 3027 3027 3027 3027 3026 3026 3026 3026 3025 3025 3024 3024 3023 3022 3022 3021 3020 3020 3019 3018 3017 3016 3015 3014 3013 3012 3012 3011 3010 3010 3009
3017 3016 3016 3015 3015 3015 3015 3015 3015 3014 3014 3015 3015 3015 3015 3016 3016 3016 3016 3016 3016 3016 3016 3016 3016 3016 3016 3016 3016 3017 3017 3018 3019 3019 3020 3020 3020 3021 3021 3022 3022 3023 3023 3023 3024 3024 3025 3025 3025 3025 3025 3026 3026 3026 3026 3026 3026 3026 3026 3026 3026 3026 3025 3025 3025 3024 3024 3023 3023 3022 3022 3021 3020 3020 3019 3018 3017 3017 3016 3015 3014 3013 3013 3012 3011 3010 3010